• In Deutschland
  • Länderverzeichnis
  • Für 7 Tage
  • Wassertemperatur
  • Satellitenkarten
  • Wetterkarte
  • Widgets
  • user-avatar
    Anmelden

    Stündliche Wetter Sonthofen

    Heute, 23 Juli, Montag

    Zeit Temperatur Niederschläge Wind Luftdruck Luftfeuchtigkeit
    00:00 +15°C° 0,2 mm 1 m/S 694 mmHg 96%
    01:00 +15°C° 0,2 mm 1 m/S 694 mmHg 96%
    02:00 +14°C° 0,1 mm 1 m/S 694 mmHg 97%
    03:00 +14°C° 0,1 mm 1 m/S 694 mmHg 97%
    04:00 +14°C° 0,1 mm 1 m/S 694 mmHg 97%
    05:00 +15°C° 0,3 mm 1 m/S 694 mmHg 97%
    06:00 +15°C° 0,3 mm 1 m/S 694 mmHg 97%
    07:00 +16°C° 0,3 mm 1 m/S 695 mmHg 96%
    08:00 +16°C° 0,2 mm 1 m/S 695 mmHg 95%
    09:00 +18°C° 0,2 mm 1 m/S 695 mmHg 93%
    10:00 +19°C° 0,2 mm 1 m/S 695 mmHg 92%
    11:00 +21°C° 0,1 mm 1 m/S 695 mmHg 83%
    12:00 +22°C° 0,1 mm 1 m/S 695 mmHg 74%
    13:00 +24°C° 0,1 mm 1 m/S 695 mmHg 65%
    14:00 +24°C° 0,2 mm 1 m/S 695 mmHg 67%
    15:00 +24°C° 0,2 mm 2 m/S 695 mmHg 69%
    16:00 +24°C° 0,2 mm 2 m/S 695 mmHg 71%
    17:00 +23°C° 0,2 mm 2 m/S 695 mmHg 77%
    18:00 +22°C° 0,2 mm 1 m/S 695 mmHg 82%
    19:00 +21°C° 0,2 mm 1 m/S 695 mmHg 87%
    20:00 +20°C° 0 mm 1 m/S 695 mmHg 90%
    21:00 +18°C° 0 mm 1 m/S 696 mmHg 92%
    22:00 +16°C° 0 mm 1 m/S 696 mmHg 95%
    23:00 +15°C° 0 mm 1 m/S 695 mmHg 95%

    Morgen, 24 Juli, Dienstag

    Zeit Temperatur Niederschläge Wind Luftdruck Luftfeuchtigkeit
    00:00 +15°C° 0 mm 1 m/S 695 mmHg 94%
    01:00 +15°C° 0 mm 1 m/S 695 mmHg 94%
    02:00 +14°C° 0 mm 1 m/S 695 mmHg 92%
    03:00 +14°C° 0 mm 1 m/S 694 mmHg 91%
    04:00 +14°C° 0 mm 1 m/S 694 mmHg 89%
    05:00 +15°C° 0 mm 1 m/S 694 mmHg 86%
    06:00 +16°C° 0 mm 1 m/S 694 mmHg 82%
    07:00 +19°C° 0 mm 1 m/S 695 mmHg 78%
    08:00 +21°C° 0 mm 1 m/S 695 mmHg 70%
    09:00 +23°C° 0 mm 1 m/S 695 mmHg 62%
    10:00 +25°C° 0 mm 2 m/S 695 mmHg 53%
    11:00 +26°C° 0 mm 2 m/S 695 mmHg 52%
    12:00 +27°C° 0 mm 2 m/S 694 mmHg 51%
    13:00 +28°C° 0 mm 3 m/S 694 mmHg 50%
    14:00 +28°C° 0 mm 3 m/S 694 mmHg 52%
    15:00 +27°C° 0 mm 3 m/S 694 mmHg 54%
    16:00 +27°C° 0 mm 3 m/S 693 mmHg 56%
    17:00 +26°C° 0 mm 3 m/S 693 mmHg 64%
    18:00 +25°C° 0 mm 2 m/S 693 mmHg 72%
    19:00 +23°C° 0 mm 2 m/S 693 mmHg 80%
    20:00 +21°C° 0 mm 2 m/S 693 mmHg 85%
    21:00 +20°C° 0 mm 1 m/S 693 mmHg 90%
    22:00 +18°C° 0 mm 1 m/S 694 mmHg 95%
    23:00 +18°C° 0 mm 1 m/S 693 mmHg 95%

    übermorgen, 25 Juli, Mittwoch

    Zeit Temperatur Niederschläge Wind Luftdruck Luftfeuchtigkeit
    00:00 +18°C° 0 mm 1 m/S 693 mmHg 95%
    01:00 +16°C° 0 mm 1 m/S 693 mmHg 95%
    02:00 +16°C° 0 mm 1 m/S 693 mmHg 95%
    03:00 +16°C° 0 mm 1 m/S 693 mmHg 96%
    04:00 +16°C° 0 mm 1 m/S 693 mmHg 96%
    05:00 +18°C° 0 mm 1 m/S 694 mmHg 93%
    06:00 +17°C° 0 mm 0 m/S 694 mmHg 90%
    07:00 +18°C° 0 mm 0 m/S 694 mmHg 87%
    08:00 +22°C° 0 mm 1 m/S 694 mmHg 78%
    09:00 +24°C° 0 mm 1 m/S 695 mmHg 69%
    10:00 +26°C° 0 mm 1 m/S 695 mmHg 61%
    11:00 +26°C° 0 mm 2 m/S 695 mmHg 57%
    12:00 +27°C° 0 mm 2 m/S 694 mmHg 54%
    13:00 +28°C° 0 mm 2 m/S 694 mmHg 51%
    14:00 +28°C° 0 mm 2 m/S 694 mmHg 53%
    15:00 +27°C° 0 mm 2 m/S 694 mmHg 54%
    16:00 +27°C° 0 mm 2 m/S 694 mmHg 56%
    17:00 +26°C° 0,1 mm 2 m/S 694 mmHg 64%
    18:00 +25°C° 0,1 mm 2 m/S 694 mmHg 71%
    19:00 +23°C° 0,1 mm 2 m/S 694 mmHg 79%
    20:00 +22°C° 0 mm 1 m/S 694 mmHg 84%
    21:00 +20°C° 0 mm 1 m/S 694 mmHg 88%
    22:00 +19°C° 0 mm 1 m/S 694 mmHg 93%
    23:00 +18°C° 0 mm 1 m/S 694 mmHg 93%

    26 Juli, Donnerstag

    Zeit Temperatur Niederschläge Wind Luftdruck Luftfeuchtigkeit
    00:00 +18°C° 0 mm 1 m/S 694 mmHg 93%
    01:00 +16°C° 0 mm 1 m/S 694 mmHg 94%
    02:00 +16°C° 0 mm 1 m/S 694 mmHg 94%
    03:00 +16°C° 0 mm 1 m/S 694 mmHg 94%
    04:00 +15°C° 0 mm 1 m/S 694 mmHg 94%
    05:00 +18°C° 0 mm 1 m/S 694 mmHg 89%
    06:00 +19°C° 0 mm 1 m/S 694 mmHg 85%
    07:00 +19°C° 0 mm 0 m/S 694 mmHg 81%
    08:00 +22°C° 0 mm 1 m/S 695 mmHg 73%
    09:00 +24°C° 0 mm 1 m/S 695 mmHg 65%
    10:00 +26°C° 0 mm 1 m/S 695 mmHg 57%
    11:00 +27°C° 0 mm 2 m/S 695 mmHg 55%
    12:00 +27°C° 0 mm 2 m/S 695 mmHg 53%
    13:00 +28°C° 0 mm 2 m/S 695 mmHg 52%
    14:00 +28°C° 0,3 mm 2 m/S 694 mmHg 57%
    15:00 +27°C° 0,3 mm 2 m/S 694 mmHg 63%
    16:00 +26°C° 0,3 mm 2 m/S 694 mmHg 68%
    17:00 +25°C° 0,4 mm 2 m/S 694 mmHg 74%
    18:00 +24°C° 0,4 mm 2 m/S 694 mmHg 80%
    19:00 +23°C° 0,4 mm 1 m/S 694 mmHg 85%
    20:00 +22°C° 0,1 mm 1 m/S 694 mmHg 88%
    21:00 +21°C° 0,1 mm 1 m/S 694 mmHg 91%
    22:00 +19°C° 0,1 mm 1 m/S 695 mmHg 94%
    23:00 +19°C° 0 mm 1 m/S 695 mmHg 94%

    27 Juli, Freitag

    Zeit Temperatur Niederschläge Wind Luftdruck Luftfeuchtigkeit
    00:00 +18°C° 0 mm 1 m/S 694 mmHg 94%
    01:00 +18°C° 0 mm 1 m/S 694 mmHg 95%
    02:00 +16°C° 0 mm 1 m/S 694 mmHg 94%
    03:00 +16°C° 0 mm 1 m/S 694 mmHg 94%
    04:00 +16°C° 0 mm 1 m/S 694 mmHg 94%
    05:00 +18°C° 0 mm 1 m/S 694 mmHg 91%
    06:00 +19°C° 0 mm 1 m/S 694 mmHg 88%
    07:00 +20°C° 0 mm 1 m/S 695 mmHg 85%
    08:00 +22°C° 0 mm 1 m/S 695 mmHg 76%
    09:00 +24°C° 0 mm 1 m/S 695 mmHg 66%
    10:00 +26°C° 0 mm 1 m/S 695 mmHg 57%
    11:00 +27°C° 0 mm 1 m/S 695 mmHg 54%
    12:00 +28°C° 0 mm 2 m/S 695 mmHg 51%
    13:00 +29°C° 0 mm 2 m/S 695 mmHg 47%
    14:00 +28°C° 0 mm 2 m/S 695 mmHg 50%
    15:00 +28°C° 0 mm 2 m/S 694 mmHg 52%
    16:00 +28°C° 0 mm 3 m/S 694 mmHg 55%
    17:00 +26°C° 0,2 mm 2 m/S 694 mmHg 64%
    18:00 +25°C° 0,2 mm 2 m/S 694 mmHg 73%
    19:00 +24°C° 0,2 mm 1 m/S 694 mmHg 81%
    20:00 +22°C° 0,1 mm 1 m/S 694 mmHg 85%
    21:00 +21°C° 0,1 mm 1 m/S 694 mmHg 88%
    22:00 +19°C° 0,1 mm 1 m/S 694 mmHg 91%
    23:00 +19°C° 0 mm 1 m/S 694 mmHg 92%

    28 Juli, Samstag

    Zeit Temperatur Niederschläge Wind Luftdruck Luftfeuchtigkeit
    00:00 +18°C° 0 mm 1 m/S 694 mmHg 92%
    01:00 +18°C° 0 mm 1 m/S 694 mmHg 93%
    02:00 +18°C° 0 mm 1 m/S 694 mmHg 93%
    03:00 +18°C° 0 mm 1 m/S 694 mmHg 93%
    04:00 +16°C° 0 mm 1 m/S 694 mmHg 93%
    05:00 +18°C° 0 mm 1 m/S 694 mmHg 90%
    06:00 +20°C° 0 mm 1 m/S 694 mmHg 87%
    07:00 +21°C° 0 mm 1 m/S 695 mmHg 84%
    08:00 +23°C° 0 mm 1 m/S 695 mmHg 76%
    09:00 +25°C° 0 mm 1 m/S 695 mmHg 68%
    10:00 +27°C° 0 mm 1 m/S 695 mmHg 59%
    11:00 +27°C° 0 mm 1 m/S 695 mmHg 56%
    12:00 +28°C° 0 mm 2 m/S 695 mmHg 53%
    13:00 +29°C° 0 mm 2 m/S 695 mmHg 49%
    14:00 +28°C° 0,2 mm 2 m/S 695 mmHg 54%
    15:00 +28°C° 0,2 mm 2 m/S 695 mmHg 58%
    16:00 +27°C° 0,2 mm 2 m/S 695 mmHg 62%
    17:00 +26°C° 0,3 mm 2 m/S 695 mmHg 69%
    18:00 +25°C° 0,3 mm 2 m/S 695 mmHg 75%
    19:00 +24°C° 0,3 mm 1 m/S 695 mmHg 82%
    20:00 +22°C° 0,1 mm 1 m/S 695 mmHg 84%
    21:00 +21°C° 0,1 mm 1 m/S 695 mmHg 87%
    22:00 +19°C° 0,1 mm 1 m/S 695 mmHg 90%
    23:00 +19°C° 0 mm 1 m/S 695 mmHg 90%
    Mehr zeigen